| time (UTC) | temp C | wind direction | speed KPH | gust KPH | rain 1hr cm | rain 24hr cm | rain mn cm | humidity % | barometer mb |
| 20260504050509 | 10 | 63 | 14.5 | 22.5 | 0.00 | 0.00 | 0.00 | 50 | 1014.9 |
| 20260504050018 | 10 | 63 | 16.1 | 22.5 | 0.00 | 0.00 | 0.00 | 50 | 1014.7 |
| 20260504045509 | 10 | 67 | 14.5 | 20.9 | 0.00 | 0.00 | 0.00 | 51 | 1014.5 |
| 20260504045007 | 10 | 74 | 12.9 | 17.7 | 0.00 | 0.00 | 0.00 | 51 | 1014.4 |
| 20260504044546 | 10 | 78 | 8.0 | 12.9 | 0.00 | 0.00 | 0.00 | 51 | 1014.4 |
| 20260504044008 | 10 | 78 | 9.7 | 16.1 | 0.00 | 0.00 | 0.00 | 52 | 1014.3 |
| 20260504043508 | 10 | 78 | 11.3 | 17.7 | 0.00 | 0.00 | 0.00 | 54 | 1014.2 |
| 20260504043033 | 10 | 78 | 11.3 | 20.9 | 0.00 | 0.00 | 0.00 | 53 | 1014.2 |
| 20260504042508 | 10 | 78 | 14.5 | 22.5 | 0.00 | 0.00 | 0.00 | 52 | 1013.9 |
| 20260504042003 | 11 | 79 | 14.5 | 22.5 | 0.00 | 0.00 | 0.00 | 51 | 1013.8 |
| 20260504041514 | 11 | 80 | 14.5 | 24.1 | 0.00 | 0.00 | 0.00 | 51 | 1013.6 |
| 20260504041004 | 11 | 81 | 16.1 | 27.4 | 0.00 | 0.00 | 0.00 | 50 | 1013.5 |
| 20260504040506 | 11 | 80 | 20.9 | 27.4 | 0.00 | 0.00 | 0.00 | 48 | 1013.5 |
| 20260504040018 | 11 | 75 | 19.3 | 27.4 | 0.00 | 0.00 | 0.00 | 48 | 1013.4 |
| 20260504035508 | 11 | 69 | 19.3 | 30.6 | 0.00 | 0.00 | 0.00 | 48 | 1013.3 |
| 20260504035008 | 11 | 74 | 22.5 | 33.8 | 0.00 | 0.00 | 0.00 | 46 | 1013.2 |
| 20260504034518 | 12 | 67 | 22.5 | 37.0 | 0.00 | 0.00 | 0.00 | 47 | 1013.2 |
| 20260504034048 | 12 | 73 | 24.1 | 37.0 | 0.00 | 0.00 | 0.00 | 47 | 1013.0 |
| 20260504033511 | 12 | 78 | 25.7 | 38.6 | 0.00 | 0.00 | 0.00 | 47 | 1012.7 |
| 20260504033028 | 12 | 75 | 22.5 | 40.2 | 0.00 | 0.00 | 0.00 | 48 | 1012.4 |
| 20260504032507 | 12 | 70 | 30.6 | 46.7 | 0.00 | 0.00 | 0.00 | 47 | 1012.3 |
| 20260504032010 | 12 | 77 | 32.2 | 51.5 | 0.00 | 0.00 | 0.00 | 46 | 1012.1 |
| 20260504031526 | 12 | 74 | 37.0 | 56.3 | 0.00 | 0.00 | 0.00 | 45 | 1012.0 |
| 20260504031013 | 13 | 78 | 41.8 | 56.3 | 0.00 | 0.00 | 0.00 | 44 | 1011.8 |
| 20260504030514 | 13 | 78 | 35.4 | 53.1 | 0.00 | 0.00 | 0.00 | 44 | 1011.6 |
| 20260504030015 | 13 | 88 | 35.4 | 54.7 | 0.00 | 0.00 | 0.00 | 43 | 1011.4 |
| 20260504025507 | 13 | 81 | 38.6 | 57.9 | 0.00 | 0.00 | 0.00 | 41 | 1011.3 |
| 20260504025037 | 14 | 80 | 43.5 | 57.9 | 0.00 | 0.00 | 0.00 | 41 | 1011.1 |
| 20260504024518 | 15 | 62 | 45.1 | 56.3 | 0.00 | 0.00 | 0.00 | 37 | 1010.9 |
| 20260504024008 | 16 | 40 | 17.7 | 27.4 | 0.00 | 0.00 | 0.00 | 35 | 1010.3 |
| 20260504023508 | 16 | 31 | 16.1 | 25.7 | 0.00 | 0.00 | 0.00 | 35 | 1010.3 |
| 20260504023024 | 16 | 26 | 17.7 | 27.4 | 0.00 | 0.00 | 0.00 | 34 | 1010.1 |
| 20260504022507 | 16 | 28 | 19.3 | 30.6 | 0.00 | 0.00 | 0.00 | 33 | 1010.0 |
| 20260504022010 | 16 | 26 | 20.9 | 33.8 | 0.00 | 0.00 | 0.00 | 33 | 1010.0 |
| 20260504021007 | 17 | 25 | 29.0 | 38.6 | 0.00 | 0.00 | 0.00 | 32 | 1009.8 |
| 20260504020509 | 17 | 26 | 25.7 | 43.5 | 0.00 | 0.00 | 0.00 | 32 | 1009.6 |
| 20260504020046 | 17 | 34 | 27.4 | 43.5 | 0.00 | 0.00 | 0.00 | 31 | 1009.6 |
| 20260504015511 | 17 | 17 | 25.7 | 43.5 | 0.00 | 0.00 | 0.00 | 31 | 1009.7 |
| 20260504015011 | 17 | 40 | 32.2 | 43.5 | 0.00 | 0.00 | 0.00 | 31 | 1009.5 |
| 20260504014514 | 17 | 43 | 33.8 | 45.1 | 0.00 | 0.00 | 0.00 | 32 | 1009.4 |
| 20260504014006 | 18 | 42 | 35.4 | 45.1 | 0.00 | 0.00 | 0.00 | 31 | 1009.2 |
| 20260504013510 | 18 | 34 | 30.6 | 41.8 | 0.00 | 0.00 | 0.00 | 30 | 1009.2 |
| 20260504013021 | 18 | 38 | 29.0 | 41.8 | 0.00 | 0.00 | 0.00 | 31 | 1009.0 |
| 20260504012508 | 18 | 42 | 32.2 | 41.8 | 0.00 | 0.00 | 0.00 | 31 | 1009.0 |
| 20260504012007 | 18 | 43 | 29.0 | 43.5 | 0.00 | 0.00 | 0.00 | 32 | 1009.0 |
| 20260504011523 | 19 | 34 | 30.6 | 43.5 | 0.00 | 0.00 | 0.00 | 31 | 1008.9 |
| 20260504011003 | 19 | 37 | 32.2 | 41.8 | 0.00 | 0.00 | 0.00 | 30 | 1008.9 |
| 20260504010504 | 20 | 42 | 30.6 | 43.5 | 0.00 | 0.00 | 0.00 | 31 | 1008.9 |
| 20260504010007 | 20 | 47 | 30.6 | 46.7 | 0.00 | 0.00 | 0.00 | 31 | 1008.8 |
| 20260504005504 | 20 | 74 | 38.6 | 46.7 | 0.00 | 0.00 | 0.00 | 32 | 1008.9 |
| 20260504005009 | 21 | 55 | 22.5 | 40.2 | 0.00 | 0.00 | 0.00 | 29 | 1008.8 |
| 20260504004506 | 20 | 5 | 17.7 | 24.1 | 0.00 | 0.00 | 0.00 | 27 | 1008.6 |
| 20260504004005 | 20 | 5 | 17.7 | 27.4 | 0.00 | 0.00 | 0.00 | 27 | 1008.7 |
| 20260504003536 | 21 | 5 | 17.7 | 27.4 | 0.00 | 0.00 | 0.00 | 27 | 1008.6 |
| 20260504003008 | 21 | 5 | 20.9 | 25.7 | 0.00 | 0.00 | 0.00 | 26 | 1008.6 |
| 20260504002505 | 21 | 360 | 12.9 | 20.9 | 0.00 | 0.00 | 0.00 | 25 | 1008.6 |
| 20260504002009 | 22 | 360 | 14.5 | 20.9 | 0.00 | 0.00 | 0.00 | 24 | 1008.6 |
| 20260504001508 | 22 | 360 | 14.5 | 25.7 | 0.00 | 0.00 | 0.00 | 25 | 1008.7 |
| 20260504001004 | 22 | 360 | 9.7 | 25.7 | 0.00 | 0.00 | 0.00 | 24 | 1008.7 |
| 20260504000503 | 22 | 360 | 16.1 | 27.4 | 0.00 | 0.00 | 0.00 | 25 | 1008.7 |
| 20260504000004 | 22 | 350 | 16.1 | 27.4 | 0.00 | 0.00 | 0.00 | 26 | 1008.7 |
| 20260503235503 | 22 | 329 | 16.1 | 20.9 | 0.00 | 0.00 | 0.00 | 24 | 1008.7 |
| 20260503235004 | 22 | 294 | 4.8 | 14.5 | 0.00 | 0.00 | 0.00 | 23 | 1008.6 |
| 20260503234508 | 21 | 294 | 4.8 | 11.3 | 0.00 | 0.00 | 0.00 | 28 | 1008.6 |
| 20260503234007 | 20 | 294 | 0.0 | 14.5 | 0.00 | 0.00 | 0.00 | 36 | 1008.7 |
| 20260503233503 | 20 | 294 | 3.2 | 17.7 | 0.00 | 0.00 | 0.00 | 33 | 1008.7 |
| 20260503233012 | 18 | 288 | 8.0 | 17.7 | 0.00 | 0.00 | 0.00 | 41 | 1008.5 |
| 20260503232506 | 18 | 306 | 11.3 | 14.5 | 0.00 | 0.00 | 0.00 | 46 | 1008.6 |
| 20260503232004 | 18 | 306 | 8.0 | 14.5 | 0.00 | 0.00 | 0.00 | 45 | 1008.7 |
| 20260503231514 | 18 | 306 | 12.9 | 14.5 | 0.00 | 0.00 | 0.00 | 49 | 1008.8 |
| 20260503231004 | 18 | 306 | 9.7 | 12.9 | 0.00 | 0.00 | 0.00 | 44 | 1008.8 |
| 20260503230505 | 19 | 306 | 11.3 | 14.5 | 0.00 | 0.00 | 0.00 | 45 | 1008.7 |
| 20260503230012 | 19 | 306 | 8.0 | 14.5 | 0.00 | 0.00 | 0.00 | 37 | 1008.7 |
| 20260503225508 | 20 | 306 | 8.0 | 14.5 | 0.00 | 0.00 | 0.00 | 36 | 1008.8 |
| 20260503225005 | 21 | 306 | 12.9 | 14.5 | 0.00 | 0.00 | 0.00 | 33 | 1008.9 |
| 20260503224509 | 21 | 306 | 3.2 | 8.0 | 0.00 | 0.00 | 0.00 | 30 | 1008.9 |
| 20260503224005 | 21 | 306 | 3.2 | 8.0 | 0.00 | 0.00 | 0.00 | 30 | 1008.9 |
| 20260503223502 | 21 | 306 | 3.2 | 8.0 | 0.00 | 0.00 | 0.00 | 28 | 1009.1 |
| 20260503223012 | 21 | 306 | 3.2 | 8.0 | 0.00 | 0.00 | 0.00 | 24 | 1009.2 |
| 20260503222509 | 21 | 306 | 4.8 | 8.0 | 0.00 | 0.00 | 0.00 | 28 | 1009.3 |
| 20260503222008 | 20 | 306 | 1.6 | 14.5 | 0.00 | 0.00 | 0.00 | 32 | 1009.4 |
| 20260503221513 | 20 | 306 | 3.2 | 14.5 | 0.00 | 0.00 | 0.00 | 36 | 1009.4 |
| 20260503221017 | 20 | 306 | 4.8 | 11.3 | 0.00 | 0.00 | 0.00 | 31 | 1009.4 |
| 20260503220507 | 20 | 306 | 3.2 | 11.3 | 0.00 | 0.00 | 0.00 | 28 | 1009.6 |
| 20260503220014 | 20 | 306 | 6.4 | 12.9 | 0.00 | 0.00 | 0.00 | 43 | 1009.6 |
| 20260503215505 | 20 | 306 | 6.4 | 16.1 | 0.00 | 0.00 | 0.00 | 35 | 1009.6 |
| 20260503215005 | 20 | 306 | 8.0 | 16.1 | 0.00 | 0.00 | 0.00 | 34 | 1009.7 |
| 20260503214521 | 20 | 306 | 4.8 | 14.5 | 0.00 | 0.00 | 0.00 | 27 | 1009.8 |
| 20260503214009 | 20 | 306 | 9.7 | 14.5 | 0.00 | 0.00 | 0.00 | 27 | 1009.9 |
| 20260503213506 | 21 | 306 | 9.7 | 14.5 | 0.00 | 0.00 | 0.00 | 35 | 1009.9 |
| 20260503213009 | 22 | 306 | 3.2 | 19.3 | 0.00 | 0.00 | 0.00 | 30 | 1010.0 |
| 20260503212504 | 22 | 306 | 9.7 | 19.3 | 0.00 | 0.00 | 0.00 | 21 | 1010.0 |
| 20260503212007 | 22 | 296 | 8.0 | 19.3 | 0.00 | 0.00 | 0.00 | 21 | 1010.2 |
| 20260503211511 | 22 | 296 | 8.0 | 19.3 | 0.00 | 0.00 | 0.00 | 20 | 1010.2 |
| 20260503211006 | 22 | 289 | 1.6 | 17.7 | 0.00 | 0.00 | 0.00 | 21 | 1010.3 |
| 20260503210507 | 21 | 289 | 11.3 | 16.1 | 0.00 | 0.00 | 0.00 | 24 | 1010.3 |
| 20260503210014 | 21 | 286 | 3.2 | 9.7 | 0.00 | 0.00 | 0.00 | 26 | 1010.3 |
| 20260503205507 | 21 | 286 | 6.4 | 9.7 | 0.00 | 0.00 | 0.00 | 29 | 1010.3 |
| 20260503205007 | 21 | 286 | 3.2 | 19.3 | 0.00 | 0.00 | 0.00 | 26 | 1010.3 |
| 20260503204519 | 21 | 286 | 8.0 | 19.3 | 0.00 | 0.00 | 0.00 | 21 | 1010.6 |
| 20260503204008 | 21 | 288 | 3.2 | 20.9 | 0.00 | 0.00 | 0.00 | 24 | 1010.6 |
| 20260503203506 | 21 | 288 | 11.3 | 22.5 | 0.00 | 0.00 | 0.00 | 22 | 1010.7 |
| 20260503203021 | 21 | 291 | 14.5 | 22.5 | 0.00 | 0.00 | 0.00 | 23 | 1010.8 |
| 20260503202506 | 21 | 280 | 11.3 | 27.4 | 0.00 | 0.00 | 0.00 | 22 | 1010.8 |
| 20260503202004 | 21 | 279 | 19.3 | 27.4 | 0.00 | 0.00 | 0.00 | 21 | 1010.8 |
| 20260503201509 | 21 | 278 | 14.5 | 22.5 | 0.00 | 0.00 | 0.00 | 23 | 1010.9 |
| 20260503201005 | 20 | 271 | 8.0 | 22.5 | 0.00 | 0.00 | 0.00 | 26 | 1011.0 |
| 20260503200503 | 21 | 273 | 8.0 | 22.5 | 0.00 | 0.00 | 0.00 | 30 | 1011.0 |
| 20260503200012 | 21 | 298 | 11.3 | 17.7 | 0.00 | 0.00 | 0.00 | 25 | 1011.1 |
| 20260503195508 | 21 | 294 | 6.4 | 17.7 | 0.00 | 0.00 | 0.00 | 27 | 1011.2 |
| 20260503195010 | 20 | 294 | 6.4 | 17.7 | 0.00 | 0.00 | 0.00 | 28 | 1011.3 |
| 20260503194521 | 20 | 294 | 11.3 | 19.3 | 0.00 | 0.00 | 0.00 | 26 | 1011.3 |
| 20260503194006 | 21 | 294 | 6.4 | 33.8 | 0.00 | 0.00 | 0.00 | 24 | 1011.4 |
| 20260503193507 | 21 | 294 | 17.7 | 33.8 | 0.00 | 0.00 | 0.00 | 22 | 1011.5 |
| 20260503193016 | 20 | 293 | 16.1 | 33.8 | 0.00 | 0.00 | 0.00 | 23 | 1011.5 |
| 20260503192507 | 18 | 258 | 14.5 | 24.1 | 0.00 | 0.00 | 0.00 | 35 | 1011.5 |
| 20260503192007 | 19 | 249 | 11.3 | 19.3 | 0.00 | 0.00 | 0.00 | 33 | 1011.6 |
| 20260503191530 | 19 | 249 | 8.0 | 19.3 | 0.00 | 0.00 | 0.00 | 28 | 1011.8 |
| 20260503191007 | 19 | 250 | 8.0 | 24.1 | 0.00 | 0.00 | 0.00 | 32 | 1012.0 |
| 20260503190504 | 19 | 250 | 17.7 | 24.1 | 0.00 | 0.00 | 0.00 | 30 | 1012.0 |
| 20260503190012 | 20 | 258 | 11.3 | 16.1 | 0.00 | 0.00 | 0.00 | 31 | 1012.1 |
| 20260503185006 | 20 | 258 | 4.8 | 20.9 | 0.00 | 0.00 | 0.00 | 24 | 1012.3 |
| 20260503184516 | 20 | 258 | 6.4 | 20.9 | 0.00 | 0.00 | 0.00 | 24 | 1012.4 |
| 20260503184005 | 19 | 254 | 6.4 | 14.5 | 0.00 | 0.00 | 0.00 | 31 | 1012.4 |
| 20260503183508 | 18 | 254 | 6.4 | 14.5 | 0.00 | 0.00 | 0.00 | 31 | 1012.3 |
| 20260503183021 | 18 | 254 | 9.7 | 14.5 | 0.00 | 0.00 | 0.00 | 29 | 1012.5 |
| 20260503182507 | 19 | 254 | 3.2 | 20.9 | 0.00 | 0.00 | 0.00 | 29 | 1012.7 |
| 20260503182011 | 18 | 254 | 16.1 | 20.9 | 0.00 | 0.00 | 0.00 | 27 | 1012.8 |
| 20260503181518 | 18 | 254 | 12.9 | 17.7 | 0.00 | 0.00 | 0.00 | 26 | 1013.0 |
| 20260503181008 | 19 | 254 | 3.2 | 12.9 | 0.00 | 0.00 | 0.00 | 24 | 1013.2 |
| 20260503180512 | 18 | 254 | 4.8 | 16.1 | 0.00 | 0.00 | 0.00 | 26 | 1013.2 |
| 20260503180031 | 18 | 254 | 4.8 | 24.1 | 0.00 | 0.00 | 0.00 | 25 | 1013.3 |
| 20260503175508 | 18 | 254 | 14.5 | 24.1 | 0.00 | 0.00 | 0.00 | 28 | 1013.3 |
| 20260503175006 | 17 | 236 | 14.5 | 22.5 | 0.00 | 0.00 | 0.00 | 33 | 1013.2 |
| 20260503174509 | 17 | 233 | 16.1 | 20.9 | 0.00 | 0.00 | 0.00 | 38 | 1013.1 |
| 20260503174009 | 17 | 236 | 16.1 | 25.7 | 0.00 | 0.00 | 0.00 | 35 | 1013.0 |
| 20260503173507 | 17 | 236 | 16.1 | 25.7 | 0.00 | 0.00 | 0.00 | 36 | 1013.0 |
| 20260503173017 | 18 | 235 | 17.7 | 24.1 | 0.00 | 0.00 | 0.00 | 34 | 1013.1 |
| 20260503172510 | 18 | 217 | 4.8 | 17.7 | 0.00 | 0.00 | 0.00 | 32 | 1013.0 |
| 20260503172010 | 18 | 217 | 8.0 | 17.7 | 0.00 | 0.00 | 0.00 | 29 | 1013.0 |
| 20260503171525 | 17 | 210 | 8.0 | 17.7 | 0.00 | 0.00 | 0.00 | 29 | 1013.1 |
| 20260503171007 | 17 | 198 | 6.4 | 14.5 | 0.00 | 0.00 | 0.00 | 34 | 1013.0 |
| 20260503170507 | 16 | 198 | 8.0 | 16.1 | 0.00 | 0.00 | 0.00 | 35 | 1013.2 |
| 20260503090508 | 5 | 182 | 3.2 | 6.4 | 0.00 | 0.03 | 0.00 | 83 | 1014.3 |
| 20260503081524 | 7 | 182 | 6.4 | 11.3 | 0.00 | 0.03 | 0.00 | 79 | 1014.4 |
| 20260503081008 | 7 | 182 | 8.0 | 11.3 | 0.00 | 0.03 | 0.00 | 79 | 1014.4 |
| 20260503080504 | 7 | 182 | 6.4 | 9.7 | 0.00 | 0.03 | 0.00 | 79 | 1014.3 |
| 20260503072504 | 7 | 182 | 6.4 | 9.7 | 0.00 | 0.03 | 0.00 | 70 | 1014.4 |
| 20260503072006 | 8 | 182 | 6.4 | 9.7 | 0.00 | 0.03 | 0.00 | 68 | 1014.4 |
| 20260503071510 | 9 | 182 | 4.8 | 11.3 | 0.00 | 0.03 | 0.00 | 72 | 1014.3 |
| 20260503071004 | 9 | 182 | 6.4 | 12.9 | 0.00 | 0.03 | 0.00 | 72 | 1014.2 |
| 20260503070507 | 9 | 182 | 8.0 | 14.5 | 0.00 | 0.03 | 0.00 | 72 | 1014.3 |